Regional Weather Roundup
Issued by NWS

Home | Current Version | Previous Version | Graphics & Text | Print | Product List | Glossary On
Versions: 1 2 3 4 5 6 7 8 9 10 11 12 13 14 15 16 17 18 19 20 21 22 23 24 25 26 27 28 29 30 31 32 33 34 35 36 37 38 39 40 41 42 43 44 45 46 47 48 49 50
000
ASUS45 KCYS 050110
RWRWY

WYOMING REGIONAL WEATHER ROUNDUP
NATIONAL WEATHER SERVICE CHEYENNE WY
700 PM MDT FRI SEP 04 2015

NOTE:  "FAIR" INDICATES FEW OR NO CLOUDS BELOW 12,000 FEET
WITH NO SIGNIFICANT WEATHER AND/OR OBSTRUCTIONS TO VISIBILITY.

WYZ001-050200-
YELLOWSTONE NATIONAL PARK

CITY           SKY/WX    TMP DP  RH WIND       PRES   REMARKS
LK YELLOWSTONE   N/A     54  44  69 CALM      30.01F
W YELLOWSTONE  NOT AVBL

$$
WYZ002>013-054>058-071-098>099-050200-
NORTHERN WYOMING

CITY           SKY/WX    TMP DP  RH WIND       PRES   REMARKS
JACKSON        FAIR      72  32  23 S9G20     29.86F
CODY           FAIR      61  48  63 N16       29.89S
GREYBULL       FAIR      75  45  34 NW24G32   29.75R
WORLAND        FAIR      82  37  20 S31G44    29.77R
SHERIDAN       FAIR      72  46  39 NW16      29.86R
BUFFALO        FAIR      73  48  41 N15G24    29.91R
GILLETTE       LGT RAIN  74  49  41 S13G20    29.89R
HULETT         FAIR      77  52  41 E6        29.87S
NEWCASTLE      FAIR      82  34  17 MISG      29.85S

$$
WYZ014>020-022>026-101>103-050200-
CENTRAL WYOMING

CITY           SKY/WX    TMP DP  RH WIND       PRES   REMARKS
BIG PINEY      FAIR      74  23  15 SW18      29.93F
PINEDALE       FAIR      72  27  18 SE15G21   29.95R
DUBOIS         FAIR      72  19  14 S6        29.92F
LANDER         FAIR      76  36  23 SW13G23   29.83S
RIVERTON       FAIR      80  34  19 S9        29.84F
CASPER         LGT RAIN  61  53  75 SE13      29.97F
DOUGLAS        MOCLDY    80  38  22 S12G23    29.93R

$$
WYZ021-027>030-104>119-050200-
SOUTHERN WYOMING

CITY           SKY/WX    TMP DP  RH WIND       PRES   REMARKS
EVANSTON       FAIR      70  28  21 S18       29.94R
KEMMERER       FAIR      68  32  26 S16G26    29.97R
FORT BRIDGER   MOCLDY    68  37  32 SE14      29.98F
ROCK SPRINGS   LGT RAIN  60  44  55 SW36G58   30.02R
DIXON          FAIR      68  49  49 E9        30.05F
RAWLINS        FAIR      65  48  54 S14       30.04F
SARATOGA       FAIR      59  46  63 E5        30.10F
LARAMIE        LGT RAIN  66  43  43 S9        30.10F
CHEYENNE       LGT RAIN  69  48  47 W8        30.03F
TORRINGTON     FAIR      83  44  25 SE7       29.85F
PINE BLUFFS    LGT RAIN  73  45  35 SW15G29   29.97R

$$


USA.gov is the U.S. government's official web portal to all federal, state and local government web resources and services.